ONEWEB-0019, 45449

Orbit data source: Space-Track

ONEWEB-0019, 45449 is a payload satellite owned by One Web (UK) in LEO that was launched on Sat, 21 Mar 2020 UTC via a SOYUZ-2-1B launch vehicle from the Tyuratam Missile And Space Complex (TTMTR). Payload-class satellites include a variety of spacecraft equipped with specific instruments for various scientific and technological missions. These include communications satellites like Starlink; space stations such as the ISS; scientific satellites like the Hubble; Earth observation satellites from companies like Planet Labs, Umbra, and HawkEye 360; GPS; miniature CubeSats for education and research; and military/defense satellites.

Loading next visibility...
Identifier
45449, 2020-020AB
Orbit
LEO
Last TLE update
19 hours ago
Origin
Manufacturer
One Web
Mission
Operational Commercial Communications
Bus & Motor
ARROW, Unknown motor
Mass
148 kg wet, ~140 kg dry
Launch date (UTC)
2020-03-21 (5 years ago)
Launch vehicle
SOYUZ-2-1B
Launch site
Tyuratam Missile And Space Complex (TTMTR)
Object type
Payload
Rocket body
Debris
Shape & HBR
Trap Box + 2 Pan, 5 m
Radar Cross Section
2.957 m², Large (>1 m²)

Expand to show TLE details & history

TLE from 19 hours ago
0 ONEWEB-0019
1 45449U 20020AB  25128.47014232  .00009915  00000-0  27877-1 0  9997
2 45449  87.8817 101.7419 0002431  89.0886 271.0520 13.11500352249495
Epoch: 2025-05-08T11:17Z
Definitive object data (Epoch: 2025-05-08T11:17:00.296Z)
Latitude
-0.00007°
Longitude
65.95049°
Altitude
1,220.216 km
Speed
7.244 km/s
True Right ascension
06h 46m 58s
True Declination
0° 00' 00"
Sunlit
Object was in daylight at TLE epoch
Visualization TLE readout
Latitude
54.02154°
Longitude
-117.11281°
Altitude
1,224.794 km
Speed
7.248 km/s
Apparent Right ascension
22h 45m 39s
Apparent Declination
22° 44' 54"
Sunlit
Object is in daylight
Visualization observer readout
Local Sidereal Time
14:22:48
Azimuth
49.393° ENE
Elevation
-9.482°
Doppler factor
1
Orbital elements
Apogee altitude
1,216.325 km
Perigee altitude
1,212.633 km
Semi-major axis
7,592.616 km
Eccentricity
0.0002431
Inclination
87.8817°
RAAN
101.7419°
Arg. of periapsis
89.0886°
True anomaly
271.02415°
Mean anomaly
271.052°
Eccentric anomaly
271.03807°
Mean motion
3.28062 °/min
BSTAR
0.027877
Orbital period
109.74 mins
Loading maneuver chart data...
Loading SW <> Apogee altitude chart data...
Loading historical data...
Loading historical data...
Loading historical data...
Loading historical data...
Loading historical data...
Loading historical data...
Loading historical data...

ONEWEB-0019 Visibility forecast

Observer location: undefined°, undefined°

Span
Click to sort rows by Start time (UTC) header in descending order
Start Az.
Max El. time (UTC)
Max El. Az.
Max El.
End time (UTC)
End Az.
14 mins2025-05-09 09:51:00.586Z8.466° NNE2025-05-09 09:58:00.586Z87.499° E39.521°2025-05-09 10:05:00.586Z162.472° S
10 mins2025-05-09 11:43:00.586Z327.241° NNW2025-05-09 11:47:00.586Z287.201° WNW23.748°2025-05-09 11:53:00.586Z231.153° WSW
12 mins2025-05-09 22:11:00.586Z160.407° S2025-05-09 22:17:00.586Z67.88° E41.117°2025-05-09 22:23:00.586Z8.701° NNE
9 mins2025-05-10 00:03:00.586Z244.245° WSW2025-05-10 00:07:00.586Z284.704° WNW21.611°2025-05-10 00:12:00.586Z331.119° NNW
|